Location: Vancouver
(49.2500°N, 123.1330°W)
Time: 06:09:07
(UTC-07:00)

ISS - All Passes

Search period start: 30 July 2014 00:00
Search period end: 09 August 2014 00:00
Orbit: 411 x 419 km, 51.6° (Epoch: 30 July)

Date Brightness Start Highest point End Pass type
(mag) Time Alt. Az. Time Alt. Az. Time Alt. Az.
30 Jul - 01:24:57 10° WSW 01:28:19 89° NNW 01:31:41 10° ENE visible
30 Jul - 03:01:54 10° WNW 03:05:13 54° N 03:08:32 10° E visible
30 Jul - 04:38:43 10° WNW 04:42:06 85° SSW 04:45:28 10° ESE visible
30 Jul - 06:15:53 10° W 06:18:29 21° SW 06:21:04 10° SSE daylight
30 Jul - 23:01:14 10° S 23:03:15 15° SE 23:05:17 10° E night (unlit)
31 Jul - 00:36:10 10° WSW 00:39:30 68° SSE 00:42:51 10° ENE visible
31 Jul - 02:13:00 10° W 02:16:19 56° N 02:19:38 10° ENE visible
31 Jul - 03:49:53 10° WNW 03:53:15 75° NNE 03:56:37 10° ESE visible
31 Jul - 05:26:47 10° W 05:29:48 31° SW 05:32:49 10° SSE daylight
31 Jul - 23:47:30 10° SW 23:50:43 47° SSE 23:53:58 10° ENE visible
01 Aug - 01:24:05 10° W 01:27:25 62° N 01:30:46 10° ENE visible
01 Aug - 03:01:02 10° WNW 03:04:23 62° N 03:07:43 10° E visible
01 Aug - 04:37:50 10° WNW 04:41:04 46° SSW 04:44:18 10° SE visible
01 Aug - 22:58:58 10° SSW 23:01:59 31° SE 23:05:00 10° E night (unlit)
02 Aug - 00:35:11 10° W 00:38:32 74° NNW 00:41:54 10° ENE visible
02 Aug - 02:12:09 10° WNW 02:15:28 56° N 02:18:48 10° E visible
02 Aug - 03:48:56 10° WNW 03:52:17 66° SSW 03:55:37 10° ESE visible
02 Aug - 05:26:31 10° W 05:28:31 15° SW 05:30:30 10° S daylight
02 Aug - 22:10:41 10° SSW 22:13:17 21° SE 22:15:53 10° E visible
02 Aug - 23:46:19 10° WSW 23:49:40 87° SSE 23:53:02 10° ENE visible
03 Aug - 01:23:15 10° W 01:26:33 54° N 01:29:52 10° ENE visible
03 Aug - 03:00:04 10° WNW 03:03:27 90° SSW 03:06:49 10° ESE visible
03 Aug - 04:37:09 10° W 04:39:51 23° SW 04:42:33 10° SSE visible
03 Aug - 21:22:50 10° S 21:24:38 14° SE 21:26:26 10° ESE visible
03 Aug - 22:57:31 10° SW 23:00:50 63° SSE 23:04:09 10° ENE visible
04 Aug - 00:34:19 10° W 00:37:37 56° N 00:40:56 10° ENE visible
04 Aug - 02:11:12 10° WNW 02:14:34 72° NNE 02:17:55 10° E visible
04 Aug - 03:48:04 10° W 03:51:08 33° SSW 03:54:12 10° SSE visible
04 Aug - 22:08:51 10° SW 22:12:02 43° SSE 22:15:14 10° ENE visible
04 Aug - 23:45:22 10° W 23:48:42 64° N 23:52:02 10° ENE visible
05 Aug - 01:22:19 10° WNW 01:25:39 61° N 01:28:59 10° E visible
05 Aug - 02:59:06 10° WNW 03:02:22 49° SSW 03:05:38 10° SE night (unlit)
05 Aug - 04:37:54 10° SW 04:38:27 10° SW 04:38:59 10° SW night (unlit)
05 Aug - 21:20:20 10° SSW 21:23:16 29° SE 21:26:13 10° E visible
05 Aug - 22:56:26 10° WSW 22:59:47 77° NNW 23:03:09 10° ENE visible
06 Aug - 00:33:25 10° WNW 00:36:43 55° N 00:40:02 10° E visible
06 Aug - 02:10:12 10° WNW 02:13:33 71° SSW 02:16:53 10° ESE visible
06 Aug - 03:47:38 10° W 03:49:49 16° SW 03:51:59 10° S night (unlit)
06 Aug - 20:32:05 10° S 20:34:33 19° SE 20:37:02 10° E daylight
06 Aug - 22:07:34 10° WSW 22:10:54 82° SSE 22:14:15 10° ENE visible
06 Aug - 23:44:28 10° W 23:47:46 54° N 23:51:04 10° ENE visible
07 Aug - 01:21:18 10° WNW 01:24:40 86° NNE 01:28:02 10° ESE visible
07 Aug - 02:58:20 10° W 03:01:07 24° SW 03:03:54 10° SSE night (unlit)
07 Aug - 19:44:22 10° SSE 19:45:53 13° SE 19:47:25 10° ESE daylight
07 Aug - 21:18:46 10° SW 21:22:02 58° SSE 21:25:21 10° ENE visible
07 Aug - 22:55:30 10° W 22:58:48 57° N 23:02:08 10° ENE visible
08 Aug - 00:32:25 10° WNW 00:35:45 69° NNE 00:39:06 10° E visible
08 Aug - 02:09:15 10° W 02:12:22 36° SSW 02:15:28 10° SE night (unlit)
08 Aug - 20:30:05 10° SW 20:33:13 40° SSE 20:36:23 10° ENE daylight
08 Aug - 22:06:32 10° W 22:09:52 66° NNW 22:13:12 10° ENE visible
08 Aug - 23:43:30 10° WNW 23:46:49 59° N 23:50:08 10° E visible
